Regional Weather Roundup
Issued by NWS Green Bay, WI

Home | Current Version | Previous Version | Text Only | Print | Product List | Glossary On
Versions: 1 2 3 4 5 6 7 8 9 10 11 12 13 14 15 16 17 18 19 20 21 22 23 24 25 26 27 28 29 30 31 32 33 34 35 36 37 38 39 40 41 42 43 44 45 46 47 48 49 50
000
ASUS43 KGRB 310659
RWRGRB

NORTH-CENTRAL AND NORTHEAST WISCONSIN REGIONAL WEATHER ROUNDUP
NATIONAL WEATHER SERVICE GREEN BAY WI
200 AM CDT THU JUL 31 2014

WIZ005-009-010>012-018-019-310800-
NORTH CENTRAL WISCONSIN

CITY           SKY/WX    TMP DP  RH WIND       PRES   REMARKS
IRONWOOD       CLEAR     52  52 100 CALM      29.95F
MANITOWISH WTR NOT AVBL
ARBOR VITAE    NOT AVBL
EAGLE RIVER    NOT AVBL
LAND O LAKES   NOT AVBL
RHINELANDER    PTCLDY    53  53 100 CALM      30.00F
PHILLIPS       CLEAR     57  56  99 CALM      30.00S FOG
ANTIGO         NOT AVBL
TOMAHAWK       NOT AVBL
MERRILL        NOT AVBL
$$

WIZ013-073-310800-
NORTHEAST WISCONSIN

CITY           SKY/WX    TMP DP  RH WIND       PRES   REMARKS
IRON MOUNTAIN  CLEAR     52  50  93 N3        29.96F
MARINETTE      CLEAR     55  54  94 CALM      29.95F
$$

WIZ017-030-035>037-045-310800-
CENTRAL WISCONSIN

CITY           SKY/WX    TMP DP  RH WIND       PRES   REMARKS
MEDFORD        NOT AVBL
WAUSAU         MOCLDY    60  58  92 CALM      29.98F
MOSINEE        MOCLDY    59  59 100 W5        30.01S
MARSHFIELD     PTCLDY    60  58  92 W6        30.00F
WISC RAPIDS    CLOUDY    61  59  93 SW5       30.01F
STEVENS POINT  NOT AVBL
WAUPACA        MOCLDY    63  59  88 W3        29.99F
SHAWANO        FOG       57  55  94 CALM      29.99S VSB 1/4
CLINTONVILLE   CLEAR     54  52  94 CALM      29.98F
$$

WIZ038-039-048-051-310800-
FOX VALLEY

CITY           SKY/WX    TMP DP  RH WIND       PRES   REMARKS
NWS GREEN BAY  CLEAR     58  57  97 W3        29.97F
APPLETON       NOT AVBL
OSHKOSH        MOCLDY    62  56  80 W3        29.99S
FOND DU LAC    PTCLDY    61  55  81 SW5       30.00S
$$

WIZ022-050-052-310800-
EAST CENTRAL WISCONSIN

CITY           SKY/WX    TMP DP  RH WIND       PRES   REMARKS
STURGEON BAY   CLEAR     61  55  82 NW7       29.97F
MANITOWOC      NOT AVBL
SHEBOYGAN      PTCLDY    57  55  93 SW5       29.98F
$$

LMZ563-521-522-541>543-310800-
LAKESHORE

STATION/POSITION TIME  TEMP    WIND        PRES    VSBY  WAVE
                       AIR SEA DIR/SP/G                  HT/PER
                 (UTC) (F)     (DEG/KT/KT) (MB)    (MI)  (FT/S)
SHEBOYGAN LKSHOR 0600   63     240/  8/  8 1015.5F
KEWAUNEE LKSHORE 0600   55      CALM  /  1 1014.4F
ALGOMA MARINA    0600             CALM       N/A
NORTHPORT PIER   0600   60     290/  4/  5 1014.6S
N MID LAKE BUOY  0600   57 55  240/  6/  8 1014.1R         1/ 3
S GREEN BAY BUOY 0600   63 66  300/  6     1015.9R
SISTER BAY LKSHO 0600   62     340/ 10/ 11   N/A
CHAMBERS ISLAND  0600   60     300/  2/  5 1014.9S
MENOMINEE LKSHOR 0600   59     280/  5/  8 1015.2F
$$


USA.gov is the U.S. government's official web portal to all federal, state and local government web resources and services.